Flag for Germany Weather past 2 weeks in Kehl, Baden-Württemberg, Germany

Now
81 °F

Sunny.


Feels Like: 80 °F
Forecast: 57 / 90 °F
Wind: 6 mph from Northeast

Location: Strasbourg Airport

Current Time: Aug 2, 2015 at 9:06:46 PM

Latest Report: Aug 2, 2015 at 8:30 PM


Visibility: 10 mi

Pressure: 30.01 "Hg

Humidity: 37%

Dew point: 52 °F

Location of KehlLocation

Historic Weather in Kehl — Graph

°F

Kehl temperature yesterday

Maximum temperature yesterday: 77 °F (at 2:00 PM)
Minimum temperature yesterday: 55 °F (at 3:30 AM)
Average temperature yesterday: 66 °F

Past Weeks' High & Low Weather Summary

 TemperatureHumidityPressure
High93 °F (Jul 21, 5:00 PM)94% (Jul 19, 4:30 AM)30.12 "Hg (Jul 19, 4:30 AM)
Low46 °F (Jul 31, 5:00 AM)29% (Jul 24, 4:30 PM)29.65 "Hg (Jul 24, 8:00 PM)
Average70 °F60%29.93 "Hg
* Reported Jul 18 7:00 PM — Aug 2 7:30 PM, Kehl, Weather by CustomWeather, © 2015

Note: Actual official high and low records may vary slightly from our data, if they occured in-between our weather recording intervals... More about our weather records

Advertising

Kehl weather history for previous 24 hours

 ConditionsComfort  
Time TempWeatherWind HumidityBarometerVisibility
7:30 PM
Sun, Aug 2
84 °FPassing clouds.7 mph35%30.01 "HgN/A
7:00 PM84 °FPassing clouds.6 mph35%30.01 "HgN/A
6:30 PM86 °FSunny.3 mph33%30.01 "Hg10 mi
6:00 PM86 °FPassing clouds.6 mph33%30.01 "HgN/A
5:30 PM86 °FSunny.5 mph31%30.04 "Hg10 mi
5:00 PM86 °FSunny.6 mph31%30.04 "Hg10 mi
4:30 PM86 °FPassing clouds.6 mph33%30.04 "HgN/A
4:00 PM86 °FSunny.3 mph31%30.04 "Hg10 mi
3:30 PM84 °FPassing clouds.6 mph35%30.07 "HgN/A
3:00 PM84 °FSunny.6 mph35%30.07 "Hg10 mi
2:30 PM82 °FPassing clouds.6 mph37%30.07 "HgN/A
2:00 PM82 °FSunny.5 mph35%30.07 "Hg10 mi
1:30 PM81 °FSunny.2 mph37%30.09 "Hg10 mi
1:00 PM79 °FSunny.6 mph42%30.09 "Hg10 mi
12:30 PM77 °FSunny.2 mph44%30.09 "Hg10 mi
12:00 PM75 °FSunny.3 mph50%30.09 "Hg10 mi
11:30 AM75 °FSunny.5 mph50%30.09 "Hg10 mi
11:00 AM73 °FSunny.3 mph53%30.12 "Hg10 mi
10:30 AM72 °FPassing clouds.3 mph57%30.12 "HgN/A
10:00 AM70 °FSunny.2 mph60%30.12 "Hg10 mi
9:30 AM68 °FSunny.No wind64%30.12 "Hg10 mi
9:00 AM64 °FSunny.No wind73%30.12 "Hg10 mi
8:30 AM63 °FSunny.2 mph77%30.12 "Hg10 mi
8:00 AM61 °FSunny.3 mph83%30.09 "Hg10 mi
7:30 AM59 °FClear.1 mph88%30.09 "Hg5 mi
7:00 AM55 °FFog.2 mph94%30.09 "Hg2 mi
6:30 AM54 °FFog.No wind94%30.09 "Hg2 mi
6:00 AM55 °FClear.2 mph94%30.09 "Hg6 mi
5:30 AM55 °FClear.2 mph94%30.07 "Hg4 mi
5:00 AM55 °FPassing clouds.2 mph94%30.07 "Hg5 mi
4:30 AM55 °FClear.3 mph94%30.07 "Hg4 mi
4:00 AM54 °FClear.3 mph94%30.07 "Hg6 mi
3:30 AM57 °FClear.1 mph88%30.07 "Hg10 mi
3:00 AM57 °FClear.2 mph94%30.07 "Hg10 mi
2:30 AM57 °FClear.3 mph88%30.07 "Hg10 mi
2:00 AM59 °FClear.2 mph88%30.04 "Hg10 mi
1:30 AM59 °FClear.No wind88%30.04 "Hg10 mi
1:00 AM57 °FClear.2 mph88%30.04 "Hg10 mi
12:30 AM61 °FClear.1 mph83%30.04 "Hg10 mi
12:00 AM61 °FClear.3 mph83%30.04 "Hg10 mi
11:30 PM
Sat, Aug 1
63 °FClear.5 mph77%30.04 "Hg10 mi
11:00 PM64 °FClear.5 mph78%30.04 "Hg10 mi
10:30 PM66 °FPassing clouds.6 mph73%30.01 "HgN/A
10:00 PM68 °FSunny.5 mph69%30.01 "Hg10 mi
9:30 PM68 °FPassing clouds.6 mph69%30.01 "HgN/A
9:00 PM70 °FPassing clouds.7 mph64%30.01 "HgN/A
Weather by CustomWeather, © 2015

See weather overviewHow to use our weather pages